Flag for U.S.A. Weather past 2 weeks in Virginia Beach, Virginia, U.S.A.

Now
25 °F

Partly cloudy.


Feels Like: 25 °F
Forecast: 29 / 50 °F
Wind: No wind

Location: Virginia Beach - Oceana

Current Time: Feb 1, 2015 at 4:12:37 AM

Latest Report: Feb 1, 2015 at 3:56 AM


Visibility: 10 mi

Pressure: 30.27 "Hg

Humidity: 75%

Dew point: 18 °F

Location of Virginia BeachLocation

Historic Weather in Virginia Beach — Graph

°F

Virginia Beach temperature yesterday

Maximum temperature yesterday: 39 °F (at 2:56 PM)
Minimum temperature yesterday: 25 °F (at 11:56 PM)
Average temperature yesterday: 31 °F

Past Weeks' High & Low Weather Summary

 TemperatureHumidityPressure
High60 °F (Jan 20, 12:56 PM)97% (Jan 22, 3:56 AM)30.43 "Hg (Jan 22, 3:56 AM)
Low25 °F (Jan 29, 6:56 AM)24% (Jan 31, 11:56 AM)29.40 "Hg (Jan 24, 12:56 PM)
Average40 °F68%30.02 "Hg
* Reported Jan 17 2:56 AM — Feb 1 2:56 AM, Virginia Beach, Weather by CustomWeather, © 2014

Note: Actual official high and low records may vary slightly from our data, if they occured in-between our weather recording intervals... More about our weather records

Advertising

Virginia Beach weather history for previous 24 hours

 ConditionsComfort  
Time TempWeatherWind HumidityBarometerVisibility
2:56 AM
Feb 1
25 °FPassing clouds.No wind69%30.27 "Hg10 mi
1:56 AM25 °FPassing clouds.No wind69%30.27 "Hg10 mi
12:56 AM26 °FPassing clouds.No wind66%30.27 "Hg10 mi
11:56 PM
Jan 31
25 °FClear.No wind66%30.28 "Hg10 mi
10:56 PM27 °FClear.No wind58%30.29 "Hg10 mi
9:56 PM26 °FClear.No wind57%30.29 "Hg10 mi
8:56 PM27 °FPassing clouds.No wind58%30.31 "Hg10 mi
7:56 PM30 °FPassing clouds.No wind47%30.32 "Hg10 mi
6:56 PM30 °FPassing clouds.3 mph45%30.30 "Hg10 mi
5:56 PM37 °FPassing clouds.3 mph28%30.29 "Hg10 mi
4:56 PM38 °FScattered clouds.8 mph27%30.28 "Hg10 mi
3:56 PM39 °FScattered clouds.14 mph25%30.27 "Hg10 mi
2:56 PM39 °FPassing clouds.15 mph24%30.27 "Hg10 mi
1:56 PM38 °FPassing clouds.17 mph25%30.28 "Hg10 mi
12:56 PM36 °FPassing clouds.15 mph27%30.30 "Hg10 mi
11:56 AM35 °FPassing clouds.18 mph24%30.32 "Hg10 mi
10:56 AM33 °FPassing clouds.21 mph30%30.35 "Hg10 mi
9:56 AM30 °FPassing clouds.18 mph40%30.34 "Hg10 mi
8:56 AM29 °FPassing clouds.16 mph43%30.33 "Hg10 mi
7:56 AM26 °FPassing clouds.21 mph42%30.32 "Hg10 mi
6:56 AM26 °FPassing clouds.23 mph44%30.29 "Hg10 mi
5:56 AM26 °FClear.29 mph46%30.27 "Hg10 mi
4:56 AM26 °FClear.23 mph44%30.25 "Hg10 mi
Weather by CustomWeather, © 2014

See weather overviewHow to use our weather pages